Other Surface Observations
Issued by NWS

Home | Current Version | Previous Version | Text Only | Print | Product List | Glossary On
Versions: 1 2 3 4 5 6 7 8 9 10 11 12 13 14 15 16 17 18 19 20 21 22 23 24 25 26 27 28 29 30 31 32 33 34 35 36 37 38 39 40 41 42 43 44 45 46 47 48 49 50
000
SXUS52 KTAE 310605
OSOTAE
OSOTAE
North Florida/South Alabama/Southwest Georgia Weather Roundup
National Weather Service Tallahassee Florida
200 AM EDT THU JUL 31 2014

Note: "fair" indicates few or no clouds below 12,000 feet with no
significant weather and/or obstructions to visibility.

!FLZ017-115-028-034-025-310700
...North Florida...

CITY           SKY/WX    TMP DP  RH WIND       PRES   REMARKS
TALLAHASSEE      N/A    N/A N/A N/A MISG      29.99S
APALACHICOLA   CLEAR     68  66  93 CALM      29.98F
PERRY          CLEAR     68  66  94 CALM      29.98F
CROSS CITY       N/A     70  66  87 CALM      29.97F
HOMERVILLE     FAIR      70  64  83 CALM      29.98F
JACKSONVILLE   PTCLDY    73  72  96 CALM      29.95F
$$

!FLZ112-006-005-002-011-310700
...Florida Panhandle...

CITY           SKY/WX    TMP DP  RH WIND       PRES   REMARKS
MARIANNA       CLEAR     68  66  93 CALM      29.99F
BONIFAY        FAIR      64  63  96 CALM      30.01F
PANAMA CITY NW FAIR      67  61  81 CALM      29.98F
TYNDALL AFB    CLEAR     68  62  81 N2        30.00F
TYND DRONE APT FAIR      69  64  86 N1        29.98F
DE FUNIAK SPR  FAIR      67  60  78 CALM      30.01F
EGLIN AFB      PTCLDY    69  60  74 NW1       29.99F
DESTIN         CLEAR     76  62  62 N6        29.99F
HURLBURT       CLEAR     67  60  78 N3        29.99F
CRESTVIEW      CLEAR     61  59  93 CALM      30.02F
PENSACOLA      CLEAR     68  62  81 N5        30.00F
$$

!ALZ063-066-310700
...South Alabama...

CITY           SKY/WX    TMP DP  RH WIND       PRES   REMARKS
DOTHAN         PTCLDY    66  61  84 CALM      30.04F
OZARK CAIRNS   PTCLDY    63  60  90 N1        30.00F
FT RUCKER HELI PTCLDY    61  58  90 CALM      30.00F
RUCKER HELI 3  FAIR      63  62  96 NW1       30.03F
RUCKER HELI 2  FAIR      62  58  86 NW3       30.01F
FLORALA APT    CLEAR     63  58  83 CALM      30.02F
ANDALUSIA      CLEAR     67  62  84 CALM      30.01F
TROY           CLEAR     63  61  93 CALM      30.02F
EUFALA         FAIR      63  60  90 CALM      30.00F
MOBILE         CLEAR     64  63  96 CALM      30.03S
$$

!GAZ120>161-310700
...Southwest and South Central Georgia...

CITY           SKY/WX    TMP DP  RH WIND       PRES   REMARKS
THOMASVILLE    FAIR      70  70 100 CALM      30.01S
BAINBRIDGE     PTCLDY    72  64  78 CALM      30.00S
MOODY AFB      PTCLDY    70  66  89 N3        29.98F
VALDOSTA       PTCLDY    69  62  78 CALM      29.99S
MOULTRIE       PTCLDY    70  66  88 CALM      30.01S
BLAKELY        PTCLDY    66  63  88 CALM      30.00F
ALBANY         PTCLDY    68  62  81 CALM      30.02S
TIFTON         FAIR      70  60  71 CALM      30.00S
FITZGERALD     FAIR      68  63  84 CALM      30.02F
CORDELE        FAIR      69  64  86 CALM      30.01F
AMERICUS       FAIR      64  63  94 CALM      30.02F
$$

!GMZ750-755-770-775-310700
...Coastal and Buoy Obs...

STATION/POSITION TIME  TEMP    WIND        PRES    VSBY  WAVE
                       AIR SEA DIR/SP/G                  HT/PER
                 (UTC) (F)     (DEG/KT/KT) (MB)    (MI)  (FT/S)
KEATON BEACH     0600   74      30/  3/  4 1015.0F
CEDAR KEY        0500   78     350/  3/  5 1015.6F
C TOWER          0600   80     320/  9/  9 1015.1F
APALACHICOLA BUO 0600   83 85  310/  8/ 10 1015.1F         1/ 4
PANAMA CITY BUOY NOT AVBL
MOBILE BUOY      0504   81 85   40/  6/ 10 1016.3
ORANGE BCH AL BU 0600   80 83   30/ 12/ 14 1016.0F         1/ 3
$$



USA.gov is the U.S. government's official web portal to all federal, state and local government web resources and services.